Regional Weather Roundup
Issued by NWS

Home | Current Version | Previous Version | Graphics & Text | Print | Product List | Glossary Off
Versions: 1 2 3 4 5 6 7 8 9 10 11 12 13 14 15 16 17 18 19 20 21 22 23 24 25 26 27 28 29 30 31 32 33 34 35 36 37 38 39 40 41 42 43 44 45 46 47 48 49 50

000
ASUS43 KDMX 171201
RWRIA

WEATHER ROUNDUP FOR IOWA
NATIONAL WEATHER SERVICE DES MOINES IA
700 AM CDT THU AUG 17 2017

NOTE: "FAIR" INDICATES FEW OR NO CLOUDS BELOW 12,000 FEET WITH NO
SIGNIFICANT WEATHER AND/OR OBSTRUCTIONS TO VISIBILITY.

* - THESE STATIONS ARE NOT NWS STATIONS...THUS NOT UNDER NWS
QUALITY CONTROL.  THEY ALSO DO NOT REPORT WEATHER SUCH
AS PRECIPITATION OR FOG.

IAZ001>003-012>014-020>022-031>034-043>046-171300-
   NORTHWEST IOWA

CITY           SKY/WX    TMP DP  RH WIND       PRES   REMARKS
CARROLL *      CLOUDY    68  66  94 W13       29.81R
CHEROKEE *     CLOUDY    65  64  96 W12       29.82R
DENISON *      CLOUDY    66  64  94 W8        29.85R
LE MARS *      CLOUDY    64  61  88 NW10G18   29.84R
ORANGE CITY *  CLOUDY    64  63  94 NW14G20   29.82R
SHELDON *      CLOUDY    64  61  88 W12       29.78R
SIOUX CITY     CLOUDY    64  60  87 NW16G24   29.85R
6HR MIN TEMP:  64; 6HR MAX TEMP:  68;

SPENCER        CLOUDY    65  64  97 W14       29.77R
6HR MIN TEMP:  65; 6HR MAX TEMP:  66; 6HR PCP:  0.01;

STORM LAKE *   MOCLDY    64  64 100 W12       29.80R FOG
$$

IAZ055>058-069>071-079>083-090>094-171300-
   SOUTHWEST IOWA

CITY           SKY/WX    TMP DP  RH WIND       PRES   REMARKS
ATLANTIC *     MOCLDY    64  63  94 W9        29.85R
AUDUBON *      CLOUDY    64  63  94 W5        29.85R
CLARINDA *     CLEAR     63  61  94 NW7       29.89S
COUNCIL BLFS * PTCLDY    64  64 100 VRB6G14   29.89R
CRESTON *      CLEAR     63  61  94 W8        29.86R
HARLAN  *      CLOUDY    66  64  94 W14       29.89R
LAMONI         CLEAR     63  62  97 W9        29.86R
6HR MIN TEMP:  63; 6HR MAX TEMP:  71;

RED OAK *      CLOUDY    64  63  94 W8        29.88R
SHENANDOAH *   CLEAR     61  61 100 W7        29.89S
$$

IAZ047>049-059>061-072>074-084-171300-
   CENTRAL IOWA

CITY           SKY/WX    TMP DP  RH WIND       PRES   REMARKS
AMES           CLOUDY    67  66  97 W13       29.77R
6HR MIN TEMP:  65; 6HR MAX TEMP:  67; 6HR PCP: TRACE;

ANKENY *       CLOUDY    68  63  83 W12       29.80R
BOONE *        CLOUDY    66  64  94 W14       29.77R
CHARITON *     PTCLDY    64  63  94 SW10      29.82R
DES MOINES     MOCLDY    67  63  87 W13       29.79R
6HR MIN TEMP:  67; 6HR MAX TEMP:  69;

GRINNELL*      CLOUDY    65  63  91 SW9       29.79R
KNOXVILLE *    PTCLDY    66  63  88 W8G15     29.79R
MARSHALLTOWN   CLOUDY    66  65  96 W13       29.75R
6HR MIN TEMP:  65; 6HR MAX TEMP:  68;

NEWTON *       CLOUDY    66  63  88 W8G14     29.79R
PELLA *        MOCLDY    67  62  85 SW7       29.80S
PERRY *          N/A     66  65  95 W13G18    29.80R
$$

IAZ004>006-015-016-023>025-035-036-171300-
   NORTH CENTRAL IOWA

CITY           SKY/WX    TMP DP  RH WIND       PRES   REMARKS
ALGONA *       CLOUDY    66  66 100 SW10      29.73S
CLARION *      CLOUDY    66  66 100 W10       29.74S
ESTHERVILLE    LGT RAIN  64  64 100 W12       29.73R
6HR MIN TEMP:  64; 6HR MAX TEMP:  65; 6HR PCP:  0.02;

FORT DODGE *   CLOUDY    66  63  88 W9        29.77R
MASON CITY     PTCLDY    66  63  90 W17G24    29.71R
6HR MIN TEMP:  66; 6HR MAX TEMP:  68;

FOREST CITY *  CLOUDY    64  64 100 SW13G18   29.70R
WEBSTER CITY * CLOUDY    66  64  94 W12       29.74R
IOWA FALLS *   CLOUDY    67  64  91 W10       29.76R
$$

IAZ007>011-017>019-026>030-037>042-050>054-066-171300-
   NORTHEAST IOWA

CITY           SKY/WX    TMP DP  RH WIND       PRES   REMARKS
CEDAR RAPIDS   PTCLDY    65  65 100 SW10      29.74R
6HR MIN TEMP:  65; 6HR MAX TEMP:  74;

CHARLES CITY * CLOUDY    66  66 100 SW13      29.70R
CLINTON *      CLOUDY    70  69  97 SW7       29.76R
DECORAH *      CLOUDY    66  64  94 SW8G17    29.66S
DUBUQUE        CLEAR     67  65  93 SW12      29.73R
6HR MIN TEMP:  66; 6HR MAX TEMP:  73;

MONTICELLO *   PTCLDY    68  66  94 SW7       29.72S
OELWEIN *      CLOUDY    66  66 100 SW13G18   29.72R
WATERLOO       CLOUDY    67  63  87 SW15G23   29.71R
6HR MIN TEMP:  66; 6HR MAX TEMP:  69;

$$

IAZ064-065-067-068-078-171300-
   EAST CENTRAL IOWA

CITY           SKY/WX    TMP DP  RH WIND       PRES   REMARKS
DAVENPORT      MOCLDY    72  70  93 SW9       29.77R
6HR MIN TEMP:  70; 6HR MAX TEMP:  74;

IOWA CITY      CLEAR     70  65  84 W10       29.77R
6HR MIN TEMP:  69; 6HR MAX TEMP:  76;

MUSCATINE *    MOCLDY    73  70  88 SW12      29.77R
QUAD CITIES    CLOUDY    73  69  87 SW12      29.75R
6HR MIN TEMP:  72; 6HR MAX TEMP:  74; 6HR PCP: TRACE;

$$

IAZ062-063-075>077-085>089-095>099-171300-
   SOUTHEAST IOWA

CITY           SKY/WX    TMP DP  RH WIND       PRES   REMARKS
BURLINGTON     CLOUDY    71  69  93 SW13      29.79R
6HR MIN TEMP:  70; 6HR MAX TEMP:  73;

FAIRFIELD *    PTCLDY    70  64  83 SW10      29.78S
FORT MADISON * CLOUDY    72  68  88 SW8       29.82R
KEOKUK *       CLOUDY    70  66  88 SW10      29.81R
OSKALOOSA *    CLOUDY    65  64  94 W9        29.81R
OTTUMWA        MOCLDY    68  65  90 W14       29.80R
6HR MIN TEMP:  67; 6HR MAX TEMP:  75;

WASHINGTON *   CLEAR     70  68  94 SW9       29.78S
$$

ABBREVIATIONS USED IN REMARKS
   TC - TEMPERATURES IN CELSIUS
  WCI - WIND CHILL INDEX
   HX - HEAT INDEX
  VSB - VISIBILITY
$$





USA.gov is the U.S. government's official web portal to all federal, state and local government web resources and services.